C/2006 CK10 (Catalina)

Epoch 2006 July 4.0 TT = JDT 2453920.5  

T 2006 July 3.27862 TT                                  Nakano

q   1.7521708            (2000.0)            P               Q

z  +0.0046087      Peri.  143.45587     -0.07912098     +0.84796942

 +/-0.0000009      Node   243.80991     +0.71880205     +0.41280952

e   0.9919247      Incl.  144.26266     +0.69069783     -0.33246979

From 314 observations 2006 Feb. 4-Dec. 13, mean residual 0".62.

   (1/a)org.= +0.004663, (1/a)fut.= +0.005288 (+/-0.000001), Q= 7.

   The comet has passed 2.15 AU from Jupiter on 2005 June 26 UT.

Residuals in seconds of arc 

2006/                     060319 215  0.3+  0.4-    060413 213  0.2+  0.2-  

060204 703  0.5-  0.4+    060320 D88  0.3-  0.0     060413 213  0.3+  0.5+  

060204 703  1.0-  0.3-    060320 D88  0.4+  1.2+    060418 A32  0.4-  0.4-  

060204 703  1.1-  0.4+    060320 D88  0.1-  0.2+    060418 A32  0.1-  0.1+  

060204 703  0.3-  0.4-    060320 561  0.8+  0.1-    060418 A32  0.0   0.3-  

060204 703  0.2-  0.2+    060320 561  0.3+  0.1-    060426 J97  0.3-  0.5-  

060204 703  0.3+  0.4+    060320 561  1.0+  0.0     060506 J97  0.6-  0.3+  

060204 703  0.1-  0.2+    060320 561  1.2-  0.3+    060509 J97  0.2+  1.4-  

060204 703  0.9-  0.2+    060321 H06 (3.7-  0.6-)   060901 704  1.1+  0.4+  

060204 703  0.9+  0.9-    060321 H06 (0.2-  2.6+)   060901 704  0.5+  0.8+  

060204 703  1.3-  0.8-    060321 349  0.3-  0.6-    060901 704 (0.2+  2.4+) 

060204 147  0.3-  0.9-    060321 349  0.0   0.6-    060901 704  0.4-  0.3+  

060204 147  0.9-  0.7-    060321 349  0.1+  0.2-    060901 704  0.4-  0.4+  

060204 147  0.5+  0.9-    060322 213  0.5+  0.4-    060916 704  0.3+  0.3-  

060205 204  0.3-  0.9+    060322 213  1.0+  0.6-    060916 704  0.4-  0.1-  

060205 204  0.4-  0.9+    060322 213  1.0+  0.6-    060916 704  0.6-  0.5-  

060205 595  0.3-  0.5-    060322 A32  0.1-  0.0     060916 704  0.8-  0.1+  

060205 595 (0.1+  2.0-)   060322 A32  0.4-  0.8+    060916 704  0.5-  0.0   

060206 854  0.1-  0.2+    060322 A32  0.3-  0.1+    060919 704  0.8+  1.0+  

060206 854  0.0   0.3+    060322 A32  0.4-  0.1-    060919 704  0.2-  0.2-  

060206 854  0.4+  0.5+    060323 H06  0.1-  0.1-    060919 704  0.6-  0.3-  

060206 854  0.1-  0.4+    060323 H06  0.5-  0.6-    060919 704  1.0-  1.2+  

060206 854  0.6-  0.0     060323 A32  0.0   0.1-    060919 704  0.1+  0.7+  

060206 704  0.1-  1.1+    060323 A32  0.0   0.4-    060922 704 (1.0+  2.9+) 

060206 704  1.0-  0.6-    060323 A32  0.3-  0.5+    060922 704  0.4-  0.6+  

060206 704  0.3+  0.8+    060323 A32  0.1+  0.3+    060922 704  0.4-  0.1+  

060206 704  0.1+  1.1-    060323 A32  0.1+  0.0     060922 704  0.6-  0.3-  

060206 G96  0.2-  0.2+    060324 442  0.1-  0.4+    060922 704  0.1-  0.3+  

060206 G96  0.3-  0.9-    060324 442  0.5+  1.1+    060924 585 (2.9+  2.2+) 

060206 704  0.3-  1.3+    060325 H45  0.7+  1.0+    060924 585  0.7+  0.3-  

060206 G96  0.4-  0.1+    060325 H45  0.7-  0.1+    060924 585  0.0   0.6-  

060206 G96  0.1-  0.1-    060325 H45  0.2+  0.3+    060924 585  0.9+  0.4-  

060207 595  0.3+  0.1+    060325 H45  0.0   0.4+    060924 585  0.1+  0.2-  

060207 595  0.6-  0.4+    060325 H45  0.1-  0.1+    060926 704  0.3+  1.0+  

060207 701  0.1+  0.3+    060325 H06  0.6-  0.7+    060926 704  0.3+  0.4+  

060207 701  0.7-  0.5-    060325 H06  0.2-  0.2+    060926 704  0.3+  0.1-  

060207 701  0.1+  0.3+    060325 232  0.4+  0.4+    060926 704  0.6+  0.0   

060207 704  1.1+  0.2+    060325 232  0.4+  0.7-    060926 704  0.3+  0.5+  

060207 704  0.0   0.8+    060325 232  0.5+  0.5-    060927 J59  1.8-  1.6-  

060207 704  0.6+  0.1-    060326 J76  0.1-  0.5-    060927 J59  0.0   0.8-  

060207 704  0.9+  0.1+    060326 J76  0.2-  0.0     060927 704  0.0   0.1+  

060207 704  0.5+  0.1-    060326 J76  0.7+  0.0     060927 704  1.4-  0.8+  

060207 704  0.3+  0.1+    060326 H45  0.9+  0.1-    060927 704  1.6-  0.8+  

060207 704  0.5+  0.1-    060326 H45  1.0+  0.1-    060927 704 (3.8-  0.8+) 

060207 704  0.3+  0.6+    060326 H45  0.5-  0.1+    060927 704  1.1-  0.5+  

060207 704  0.8+  0.2+    060326 H45  1.6-  0.5+    060928 204  0.5+  0.4-  

060207 704  0.9+  0.3+    060328 213  0.1+  0.6-    060928 204  0.4+  0.4-  

060208 J95  0.1+  0.5-    060328 213  0.2+  0.5-    060928 704  0.5+  1.0+  

060208 J95  0.5-  0.1-    060328 213  0.1+  0.8-    060928 704  1.7-  0.2-  

060208 J95  0.2-  0.0     060329 H45  0.8+  0.7-    060928 704  0.4+  0.8+  

060208 704  0.7+  0.1-    060329 H45  0.2+  0.3+    060928 704  0.3+  0.6+  

060208 704  0.9+  0.6+    060329 H45  0.4+  0.5+    061001 118  0.9+  0.5+  

060208 704  0.2+  0.9+    060329 H45  0.0   1.0+    061001 118  0.9+  0.3-  

060208 704  0.9+  0.6+    060329 H45  0.6+  0.5-    061003 704  0.5+  0.6+  

060208 704  0.6+  0.6+    060329 349  0.0   0.7-    061003 704  0.1+  1.5+  

060225 693  0.3+  0.5-    060329 349  0.2+  0.5-    061003 704  0.5-  1.2+  

060225 693  0.3+  0.6+    060329 349  0.3-  0.7-    061003 704  0.7-  1.5+  

060225 693  0.0   0.4+    060331 D83  0.4-  0.0     061003 704 (1.5-  2.2+) 

060225 A74  0.1+  0.1-    060331 D83  0.8-  0.3-    061014 349  0.5+  0.3+  

060225 A74  0.2+  0.3+    060331 D83 (2.5-  2.2+)   061014 349  0.9+  0.1+  

060225 A74  0.3-  0.0     060331 147  0.1+  0.5+    061014 349  0.9+  0.0   

060225 A74  0.4-  0.3-    060331 147  0.2-  0.1-    061015 A11  0.4-  1.5+  

060226 A74  0.2-  0.1-    060331 147  0.5+  0.4+    061015 A11  0.4-  1.0+  

060302 703  0.1-  1.8-    060331 147  0.0   0.3+    061015 A11  0.5-  0.5+  

060302 703  0.1+  1.3-    060401 232  0.8-  0.0     061015 A11  0.7-  0.3-  

060303 349  0.3-  0.0     060401 232  0.7-  0.2-    061015 A11  0.9-  0.2+  

060303 349  0.4-  0.1+    060401 232  0.5-  0.3-    061016 703  1.7-  0.5-  

060303 349  0.4-  0.0     060401 118  0.4+  0.1+    061016 703  0.4-  0.4-  

060303 213  0.4+  0.1+    060401 118  0.1+  0.1-    061016 703  0.8-  0.1+  

060303 213  0.9+  0.2-    060401 118  0.3+  0.2+    061016 703  1.0-  0.4+  

060303 213  0.7+  0.4-    060401 118  0.3+  0.1+    061017 703  0.6-  0.3+  

060304 D88  1.2-  0.8-    060401 118  0.2+  0.1+    061017 703  0.4-  0.1+  

060304 D88  0.9-  0.7-    060402 204  0.0   0.1-    061017 703  0.9-  0.3+  

060304 D88  0.7+  1.3-    060402 204  0.0   0.1-    061022 844  1.9+  0.8+  

060304 D83  0.8+  0.3-    060402 204  0.0   0.1-    061022 844  0.2-  1.0+  

060304 D83  0.1+  0.3-    060403 H85  0.2-  0.1+    061022 844  0.1+  0.3+  

060304 D83  0.6+  0.2-    060403 H85  0.1+  0.0     061022 844  0.8-  0.6+  

060305 673  0.9+  0.1-    060403 H45  0.5-  1.3-    061022 844 (1.8+  3.6+) 

060305 673  0.7+  0.7+    060403 H45  0.6+  0.3-    061025 561  0.8+  1.0-  

060305 673  0.4+  0.0     060403 H45  0.3+  0.7-    061025 561  1.4+  0.1+  

060305 673  1.1+  0.2+    060403 H45  1.0-  0.1-    061025 561  0.4+  1.1+  

060305 D88  0.3-  1.1-    060403 A32  0.1-  0.3-    061028 703  0.0   1.2-  

060305 D88  0.0   1.1-    060403 A32  0.5-  0.2-    061028 703  0.2+  0.6-  

060305 D88  1.1+  0.6-    060403 A32  0.5-  0.0     061028 703  0.4+  1.8-  

060305 349  0.3+  0.1+    060403 A32  0.2+  0.4+    061028 703  0.2+  1.2-  

060305 349  0.7+  0.5+    060404 H42  1.0-  0.4+    061030 215  0.6+  0.6-  

060306 213  0.4+  0.1-    060404 H42  0.4-  0.2-    061030 215  0.5+  0.5-  

060306 213  0.5-  0.3-    060404 H42  0.4-  0.4-    061030 215  0.6+  0.4-  

060306 213  0.5+  0.3-    060404 H42  0.4-  0.4-    061102 958  0.1+  0.4+  

060307 349  0.1+  0.4+    060406 704  0.3+  0.2-    061102 958  0.3+  0.4-  

060307 349  0.1-  0.5+    060406 704  0.2-  0.3+    061102 958  0.7+  0.1-  

060307 349  0.0   0.7+    060406 704  0.3+  0.1-    061107 644  0.1-  0.7-  

060311 130  0.3-  0.4-    060406 704  0.6-  0.2-    061107 644  0.2+  0.9-  

060311 130  0.1+  0.0     060407 673  0.6+  0.4+    061107 644  0.2-  0.5-  

060311 130  0.0   0.1-    060407 673  0.0   0.2+    061117 415  0.5-  0.9-  

060311 130  0.2+  0.3-    060407 673  0.4+  0.3+    061117 415  0.5-  1.4-  

060312 A13  1.2-  0.4+    060407 673  0.2+  0.4+    061117 349  1.0+  1.7+  

060312 A13  1.0-  0.4+    060407 147  0.1+  0.7+    061117 349 (0.4+  2.1+) 

060312 A13  1.6-  1.0+    060407 147  0.6+  0.1+    061117 349 (0.8+  2.0+) 

060312 A13  0.6-  1.7+    060407 147  0.0   0.3-    061119 703  0.0   1.2-  

060312 A13  0.2-  0.2+    060407 147  0.4-  0.1-    061119 703  0.8-  1.6-  

060314 J97  0.7-  0.3-    060408 349  0.2-  0.0     061119 703  1.0-  1.6-  

060315 J76  0.1+  0.4-    060408 349  0.8-  0.2+    061119 703 (0.4-  2.0-) 

060315 J76  0.4+  0.2+    060408 349  0.7-  0.2-    061124 703  1.9+  0.2+  

060315 J76  0.1-  0.5+    060409 H45  0.3-  0.6-    061124 703 (1.9+  2.8+) 

060319 H06  1.2+  0.5-    060409 H45  0.6-  0.5-    061124 703  1.3+  1.0+  

060319 H06  0.3-  0.6-    060409 H45  0.4-  0.8-    061124 703 (0.5+  2.3+) 

060319 349  0.2+  0.6-    060409 H45  0.2-  0.5-    061203 349  1.9+  0.2-  

060319 349  0.7+  0.2+    060409 H45  0.4-  0.7-    061203 349  1.2+  0.1+  

060319 215  0.2+  0.0     060409 H45  0.4+  1.4-    061213 215  1.1-  1.8-  



NAKANO

         **** Don't distribute anyone except personal use only ****

                (C) Copyright 2008 OAA/ComputingSection

write mail from CFAD0::NAKANO on 2008-08-02 06:17:05(JST).

◎C/2006 CK10の軌道と予報位置です



 上尾の門田健一氏から3月3日の観測が報告されました.氏のCCD全光度は

17.5等でした.



    C/2006 CK10 (Catalina)

T 2006 July 2.67696 TT                                  Nakano

q   1.7568244            (2000.0)            P               Q

                   Peri.  143.11964     -0.08373030     +0.84743593

                   Node   243.79333     +0.71628732     +0.41693170

e   1.0            Incl.  144.24524     +0.69276383     -0.32866443

From 66 observations 2006 Feb. 4-Mar. 3.

 

Date/        TT  R.A.(2000) Decl.     Delta   r     Daily motion  Mag.  Moon Age

